Weather History for Jerez de la Frontera, Spain

Change the Weather History Date:

Sunday, October 23, 2011

  Actual Average Record
Temperature  
Mean Temperature 69 °F -  
Max Temperature 78 °F 67 °F 87 °F (2004)
Min Temperature 60 °F 49 °F 46 °F (1998)
Cooling Degree Days 4    
Growing Degree Days 19 (Base 50)    
Moisture  
Dew Point 59 °F    
Average Humidity 73    
Maximum Humidity 88    
Minimum Humidity 44    
Precipitation  
Precipitation 0.12 in 0.13 in - ()
Sea Level Pressure  
Sea Level Pressure 29.89 in    
Wind  
Wind Speed 8 mph ()    
Max Wind Speed 20 mph    
Max Gust Speed 34 mph    
Visibility 6.8 miles    
Events Rain    
Averages and records for this station are not official NWS values.
T = Trace of Precipitation, MM = Missing Value Source: Averaged Metar Reports

Daily Weather History Graph

Daily Weather History Graph

Search for Another Location

Airport:

Trip Planner

Search our weather history database for the weather conditions in past years. The results will help you decide how hot, cold, wet, or windy it might be!

Date:

Astronomy

Oct. 23, 2011 Rise Set
Actual Time 8:38 AM CEST 7:37 PM CEST
Civil Twilight 8:12 AM CEST 8:04 PM CEST
Nautical Twilight 7:42 AM CEST 8:34 PM CEST
Astronomical Twilight 7:12 AM CEST 9:04 PM CEST
Moon 4:35 AM CEST (10/23) 5:16 PM CEST (10/23)
Length of Visible Light 11h 52m
Length of Day
10h 59m
Waning Crescent, 17% of the Moon is Illuminated
Oct 23
Waning Crescent
Oct 26
New
Nov 2
First Quarter
Nov 10
Full
Nov 18
Last Quarter

Hourly Weather History & Observations

Time (CEST) Temp. Dew Point Humidity Pressure Visibility Wind Dir Wind Speed Gust Speed Precip Events Conditions
5:00 AM 64.4 °F 57.2 °F 77% 29.95 in 6.2 mi West 4.6 mph - N/A   Partly Cloudy
5:30 AM 62.6 °F 55.4 °F 77% 29.92 in 6.2 mi WNW 6.9 mph - N/A   Partly Cloudy
6:00 AM 60.8 °F 53.6 °F 77% 29.92 in 6.2 mi Variable 1.2 mph - N/A   Scattered Clouds
6:30 AM 60.8 °F 53.6 °F 77% 29.92 in 6.2 mi Variable 1.2 mph - N/A   Scattered Clouds
7:00 AM 59.0 °F 53.6 °F 82% 29.92 in 6.2 mi Variable 2.3 mph - N/A   Mostly Cloudy
7:30 AM 60.8 °F 53.6 °F 77% 29.92 in 6.2 mi Calm Calm - N/A   Mostly Cloudy
8:00 AM 62 °F 57 °F 79% 29.94 in 16 mi SW 2.3 mph - -   Partly Cloudy
8:00 AM 60.8 °F 55.4 °F 82% 29.92 in 6.2 mi Variable 2.3 mph - N/A   Scattered Clouds
8:30 AM 64.4 °F 60.8 °F 88% 29.92 in 6.2 mi South 5.8 mph - N/A   Scattered Clouds
9:00 AM 64.4 °F 59.0 °F 83% 29.95 in 6.2 mi South 9.2 mph - N/A   Scattered Clouds
9:30 AM 64.4 °F 59.0 °F 83% 29.95 in 6.2 mi South 6.9 mph - N/A   Partly Cloudy
10:00 AM 66.2 °F 60.8 °F 83% 29.95 in 6.2 mi South 8.1 mph - N/A   Scattered Clouds
10:30 AM 68.0 °F 62.6 °F 83% 29.95 in 6.2 mi South 8.1 mph - N/A   Scattered Clouds
11:00 AM 71.6 °F 62.6 °F 73% 29.95 in 6.2 mi South 10.4 mph - N/A   Scattered Clouds
11:30 AM 69.8 °F 60.8 °F 73% 29.95 in 6.2 mi SW 15.0 mph - N/A   Scattered Clouds
12:00 PM 73.4 °F 59.0 °F 61% 29.95 in 6.2 mi SSW 16.1 mph - N/A   Scattered Clouds
12:30 PM 73.4 °F 57.2 °F 57% 29.95 in 6.2 mi SW 16.1 mph - N/A   Scattered Clouds
1:00 PM 75.2 °F 59.0 °F 57% 29.95 in 6.2 mi South 17.3 mph - N/A   Scattered Clouds
1:30 PM 75.2 °F 57.2 °F 53% 29.92 in 6.2 mi SSW 18.4 mph - N/A   Scattered Clouds
2:00 PM 78 °F 60 °F 44% 29.92 in 16 mi SSW 19.6 mph - -   Partly Cloudy
2:00 PM 75.2 °F 59.0 °F 57% 29.92 in 6.2 mi SSW 18.4 mph - N/A   Scattered Clouds
2:30 PM 75.2 °F 59.0 °F 57% 29.89 in 6.2 mi SSW 18.4 mph - N/A   Scattered Clouds
3:00 PM 75.2 °F 57.2 °F 53% 29.89 in 6.2 mi SSW 19.6 mph - N/A   Scattered Clouds
3:30 PM 73.4 °F 59.0 °F 61% 29.89 in 6.2 mi SSW 16.1 mph - N/A   Scattered Clouds
4:00 PM 69.8 °F 64.4 °F 83% 29.89 in 6.2 mi SW 17.3 mph - N/A Rain Light Rain Showers
4:30 PM 71.6 °F 62.6 °F 73% 29.86 in 6.2 mi SSW 18.4 mph - N/A   Scattered Clouds
4:53 PM 69.8 °F 62.6 °F 78% 29.86 in 1.6 mi SW 17.3 mph 31.1 mph N/A Rain Heavy Rain Showers
5:00 PM 66.2 °F 62.6 °F 88% 29.89 in 3.7 mi SW 18.4 mph 34.5 mph N/A Rain Light Rain Showers
5:30 PM 69.8 °F 64.4 °F 83% 29.86 in 6.2 mi SW 15.0 mph - N/A   Scattered Clouds
6:00 PM 71.6 °F 62.6 °F 73% 29.86 in 6.2 mi SW 15.0 mph - N/A   Scattered Clouds
6:30 PM 69.8 °F 59.0 °F 68% 29.83 in 6.2 mi SW 12.7 mph - N/A   Scattered Clouds
7:00 PM 69.8 °F 59.0 °F 68% 29.83 in 6.2 mi SW 11.5 mph - N/A   Scattered Clouds
7:30 PM 68.0 °F 59.0 °F 73% 29.83 in 6.2 mi SW 11.5 mph - N/A   Scattered Clouds
8:00 PM 68 °F 60 °F 70% 29.85 in 16 mi SSW 9.2 mph - -   Partly Cloudy
8:00 PM 68.0 °F 59.0 °F 73% 29.83 in 6.2 mi SW 8.1 mph - N/A   Scattered Clouds
8:30 PM 66.2 °F 59.0 °F 78% 29.83 in 6.2 mi SW 8.1 mph - N/A   Scattered Clouds
9:00 PM 64.4 °F 57.2 °F 77% 29.83 in 6.2 mi South 5.8 mph - N/A   Partly Cloudy
9:30 PM 64.4 °F 57.2 °F 77% 29.83 in 6.2 mi South 4.6 mph - N/A   Partly Cloudy
10:00 PM 62.6 °F 57.2 °F 82% 29.83 in 6.2 mi South 3.5 mph - N/A   Partly Cloudy
10:30 PM 62.6 °F 57.2 °F 82% 29.83 in - South 4.6 mph - N/A   Clear
11:00 PM 62.6 °F 57.2 °F 82% 29.80 in - South 3.5 mph - N/A   Clear